Hourly Weather Beverly

Today, 3 July, Friday

Time Temperature Precipitation Wind Pressure Humidity
00:00 +11°C° 0 mm 3 mps 759 mmHg 94%
01:00 +11°C° 0 mm 3 mps 759 mmHg 92%
02:00 +11°C° 0 mm 3 mps 759 mmHg 91%
03:00 +11°C° 0 mm 3 mps 758 mmHg 89%
04:00 +11°C° 0.1 mm 4 mps 758 mmHg 89%
05:00 +10°C° 0.1 mm 5 mps 758 mmHg 90%
06:00 +12°C° 0 mm 5 mps 758 mmHg 92%
07:00 +11°C° 0.4 mm 6 mps 757 mmHg 91%
08:00 +11°C° 0.4 mm 7 mps 757 mmHg 89%
09:00 +12°C° 0.4 mm 7 mps 757 mmHg 88%
10:00 +12°C° 0.2 mm 7 mps 757 mmHg 88%
11:00 +12°C° 0.2 mm 7 mps 756 mmHg 88%
12:00 +14°C° 0.2 mm 7 mps 756 mmHg 88%
13:00 +14°C° 0 mm 7 mps 756 mmHg 86%
14:00 +15°C° 0 mm 8 mps 755 mmHg 84%
15:00 +15°C° 0 mm 8 mps 755 mmHg 82%
16:00 +15°C° 0.1 mm 8 mps 755 mmHg 83%
17:00 +15°C° 0.1 mm 8 mps 755 mmHg 84%
18:00 +15°C° 0.1 mm 8 mps 754 mmHg 84%
19:00 +15°C° 0.1 mm 8 mps 755 mmHg 85%
20:00 +15°C° 0.1 mm 7 mps 755 mmHg 86%
21:00 +15°C° 0.1 mm 7 mps 755 mmHg 87%
22:00 +15°C° 0.2 mm 6 mps 755 mmHg 89%
23:00 +15°C° 0.2 mm 6 mps 755 mmHg 91%

Tomorrow, 4 July, Saturday

Time Temperature Precipitation Wind Pressure Humidity
00:00 +15°C° 0.2 mm 5 mps 755 mmHg 93%
01:00 +15°C° 0.2 mm 5 mps 755 mmHg 94%
02:00 +15°C° 0.2 mm 5 mps 754 mmHg 94%
03:00 +15°C° 0.2 mm 4 mps 754 mmHg 95%
04:00 +15°C° 0.3 mm 4 mps 754 mmHg 95%
05:00 +16°C° 0.3 mm 5 mps 753 mmHg 95%
06:00 +16°C° 0.3 mm 5 mps 753 mmHg 94%
07:00 +17°C° 0.1 mm 5 mps 753 mmHg 92%
08:00 +17°C° 0.1 mm 5 mps 753 mmHg 90%
09:00 +19°C° 0.1 mm 5 mps 753 mmHg 89%
10:00 +19°C° 0.1 mm 6 mps 753 mmHg 86%
11:00 +20°C° 0.1 mm 6 mps 753 mmHg 83%
12:00 +20°C° 0.1 mm 6 mps 753 mmHg 80%
13:00 +20°C° 0.1 mm 6 mps 753 mmHg 81%
14:00 +20°C° 0.1 mm 6 mps 753 mmHg 81%
15:00 +19°C° 0.1 mm 6 mps 753 mmHg 81%
16:00 +19°C° 0 mm 5 mps 754 mmHg 82%
17:00 +19°C° 0 mm 5 mps 754 mmHg 82%
18:00 +17°C° 0 mm 5 mps 754 mmHg 83%
19:00 +18°C° 0 mm 4 mps 754 mmHg 85%
20:00 +17°C° 0 mm 4 mps 754 mmHg 87%
21:00 +17°C° 0 mm 4 mps 754 mmHg 89%
22:00 +16°C° 0 mm 5 mps 753 mmHg 87%
23:00 +16°C° 0 mm 6 mps 753 mmHg 86%

Day after tomorrow, 5 July, Sunday

Time Temperature Precipitation Wind Pressure Humidity
00:00 +17°C° 0 mm 7 mps 752 mmHg 85%
01:00 +17°C° 0 mm 8 mps 751 mmHg 83%
02:00 +17°C° 0 mm 8 mps 751 mmHg 81%
03:00 +17°C° 0 mm 9 mps 750 mmHg 79%
04:00 +17°C° 0.1 mm 9 mps 750 mmHg 80%
05:00 +17°C° 0.1 mm 9 mps 750 mmHg 81%
06:00 +17°C° 0.1 mm 10 mps 749 mmHg 81%
07:00 +17°C° 0.1 mm 10 mps 750 mmHg 75%
08:00 +16°C° 0.1 mm 10 mps 750 mmHg 70%
09:00 +14°C° 0.1 mm 11 mps 751 mmHg 64%
10:00 +16°C° 0 mm 11 mps 751 mmHg 62%
11:00 +16°C° 0 mm 11 mps 751 mmHg 60%
12:00 +17°C° 0 mm 11 mps 752 mmHg 58%
13:00 +16°C° 0 mm 11 mps 752 mmHg 58%
14:00 +16°C° 0 mm 10 mps 752 mmHg 59%
15:00 +16°C° 0 mm 10 mps 752 mmHg 60%
16:00 +14°C° 0.1 mm 10 mps 752 mmHg 63%
17:00 +15°C° 0.1 mm 9 mps 752 mmHg 67%
18:00 +13°C° 0.1 mm 9 mps 752 mmHg 71%
19:00 +12°C° 0 mm 8 mps 752 mmHg 72%
20:00 +11°C° 0 mm 7 mps 752 mmHg 72%
21:00 +11°C° 0 mm 7 mps 752 mmHg 73%
22:00 +11°C° 0 mm 7 mps 752 mmHg 74%
23:00 +11°C° 0 mm 7 mps 753 mmHg 75%

6 July, Monday

Time Temperature Precipitation Wind Pressure Humidity
00:00 +11°C° 0 mm 8 mps 753 mmHg 76%
01:00 +10°C° 0 mm 8 mps 754 mmHg 77%
02:00 +10°C° 0 mm 7 mps 754 mmHg 78%
03:00 +9°C° 0 mm 7 mps 755 mmHg 79%
04:00 +10°C° 0 mm 7 mps 756 mmHg 78%
05:00 +10°C° 0 mm 7 mps 756 mmHg 78%
06:00 +11°C° 0 mm 7 mps 757 mmHg 77%
07:00 +12°C° 0.1 mm 7 mps 758 mmHg 75%
08:00 +14°C° 0.1 mm 6 mps 758 mmHg 73%
09:00 +15°C° 0.1 mm 6 mps 759 mmHg 71%
10:00 +16°C° 0.2 mm 6 mps 759 mmHg 68%
11:00 +17°C° 0.2 mm 5 mps 760 mmHg 65%
12:00 +17°C° 0.2 mm 5 mps 761 mmHg 62%
13:00 +17°C° 0.4 mm 5 mps 761 mmHg 64%
14:00 +18°C° 0.4 mm 4 mps 762 mmHg 66%
15:00 +17°C° 0.4 mm 3 mps 762 mmHg 68%
16:00 +16°C° 0.2 mm 3 mps 763 mmHg 70%
17:00 +16°C° 0.2 mm 2 mps 763 mmHg 73%
18:00 +15°C° 0.2 mm 2 mps 763 mmHg 75%
19:00 +14°C° 0 mm 2 mps 764 mmHg 78%
20:00 +13°C° 0 mm 2 mps 764 mmHg 81%
21:00 +11°C° 0 mm 3 mps 765 mmHg 84%
22:00 +11°C° 0 mm 3 mps 765 mmHg 85%
23:00 +10°C° 0 mm 4 mps 765 mmHg 87%

7 July, Tuesday

Time Temperature Precipitation Wind Pressure Humidity
00:00 +8°C° 0 mm 4 mps 765 mmHg 89%
01:00 +8°C° 0 mm 4 mps 765 mmHg 89%
02:00 +7°C° 0 mm 4 mps 765 mmHg 88%
03:00 +7°C° 0 mm 4 mps 765 mmHg 88%
04:00 +8°C° 0 mm 5 mps 765 mmHg 86%
05:00 +9°C° 0 mm 5 mps 765 mmHg 84%
06:00 +10°C° 0 mm 5 mps 765 mmHg 83%
07:00 +12°C° 0 mm 5 mps 765 mmHg 77%
08:00 +14°C° 0 mm 5 mps 765 mmHg 71%
09:00 +15°C° 0 mm 5 mps 766 mmHg 65%
10:00 +15°C° 0 mm 5 mps 766 mmHg 63%
11:00 +16°C° 0 mm 5 mps 766 mmHg 61%
12:00 +18°C° 0 mm 4 mps 766 mmHg 59%
13:00 +18°C° 0.1 mm 4 mps 766 mmHg 60%
14:00 +18°C° 0.1 mm 4 mps 766 mmHg 61%
15:00 +18°C° 0.1 mm 4 mps 766 mmHg 62%
16:00 +17°C° 0 mm 4 mps 766 mmHg 64%
17:00 +17°C° 0 mm 4 mps 766 mmHg 66%
18:00 +15°C° 0 mm 4 mps 766 mmHg 68%
19:00 +14°C° 0 mm 4 mps 766 mmHg 73%
20:00 +12°C° 0 mm 3 mps 766 mmHg 78%
21:00 +11°C° 0 mm 3 mps 766 mmHg 83%
22:00 +10°C° 0 mm 3 mps 766 mmHg 84%
23:00 +10°C° 0 mm 3 mps 766 mmHg 84%

8 July, Wednesday

Time Temperature Precipitation Wind Pressure Humidity
00:00 +9°C° 0 mm 2 mps 766 mmHg 85%
01:00 +10°C° 0 mm 3 mps 765 mmHg 81%
02:00 +10°C° 0 mm 3 mps 765 mmHg 77%
03:00 +11°C° 0 mm 4 mps 764 mmHg 73%
04:00 +10°C° 0 mm 5 mps 764 mmHg 73%
05:00 +10°C° 0 mm 6 mps 763 mmHg 73%
06:00 +11°C° 0 mm 7 mps 763 mmHg 74%
07:00 +11°C° 0 mm 7 mps 763 mmHg 75%
08:00 +12°C° 0 mm 7 mps 762 mmHg 77%
09:00 +14°C° 0 mm 6 mps 762 mmHg 79%
10:00 +15°C° 0 mm 7 mps 762 mmHg 79%
11:00 +16°C° 0 mm 7 mps 761 mmHg 79%
12:00 +16°C° 0 mm 7 mps 761 mmHg 79%
13:00 +17°C° 0 mm 7 mps 761 mmHg 79%
14:00 +18°C° 0 mm 7 mps 760 mmHg 79%
15:00 +18°C° 0 mm 7 mps 760 mmHg 78%
16:00 +18°C° 0 mm 7 mps 759 mmHg 80%
17:00 +18°C° 0 mm 7 mps 759 mmHg 81%
18:00 +17°C° 0 mm 7 mps 759 mmHg 83%
19:00 +17°C° 0.1 mm 7 mps 759 mmHg 83%
20:00 +17°C° 0.1 mm 7 mps 759 mmHg 84%
21:00 +17°C° 0.1 mm 7 mps 759 mmHg 84%
22:00 +16°C° 0 mm 7 mps 759 mmHg 84%
23:00 +15°C° 0 mm 7 mps 759 mmHg 85%
Show more